This is the latest recevied weather packets stored in our database for station/object W8KVG. If no packets are shown the sender has not sent any weather packets the latest 1 day(s).
| Time | Temp. | Humidity | Pressure | Rain* | Wind** | Luminosity | Snow |
|---|---|---|---|---|---|---|---|
| 1778072389 | 8.33° C | 99% | 1007.2 hPa | 0.51 mm | - | 17 W/m² | - |
| 1778072087 | 8.33° C | 99% | 1007 hPa | 0 mm | - | 13 W/m² | - |
| 1778071482 | 8.89° C | 99% | 1006.4 hPa | 0 mm | - | 9 W/m² | - |
| 1778071180 | 8.89° C | 99% | 1006.4 hPa | 0.51 mm | - | 11 W/m² | - |
| 1778069970 | 8.89° C | 99% | 1006.3 hPa | 0 mm | - | 13 W/m² | - |
| 1778068758 | 8.89° C | 99% | 1006.3 hPa | 0 mm | - | 10 W/m² | - |
| 1778068456 | 8.89° C | 99% | 1006.3 hPa | 0 mm | - | 8 W/m² | - |
| 1778065431 | 10° C | 99% | 1005.2 hPa | 0.51 mm | - | 6 W/m² | - |
| 1778064219 | 12.78° C | 99% | 1005 hPa | 4.32 mm | - | 1 W/m² | - |
| 1778063614 | 13.33° C | 99% | 1004.8 hPa | 3.56 mm | - | 0 W/m² | - |
| 1778063009 | 13.33° C | 99% | 1004.9 hPa | 3.56 mm | - | 0 W/m² | - |
| 1778062706 | 13.33° C | 99% | 1005 hPa | 3.56 mm | - | 0 W/m² | - |
| 1778062402 | 13.33° C | 99% | 1005 hPa | 3.05 mm | - | 0 W/m² | - |
| 1778062100 | 13.33° C | 99% | 1004.6 hPa | 3.56 mm | - | 0 W/m² | - |
| 1778061193 | 13.33° C | 99% | 1004.7 hPa | 0.51 mm | - | 0 W/m² | - |
| 1778060890 | 13.33° C | 99% | 1004.7 hPa | 0.51 mm | - | 0 W/m² | - |
| 1778059983 | 13.33° C | 99% | 1004.8 hPa | 2.29 mm | - | 0 W/m² | - |
| 1778058773 | 13.33° C | 99% | 1005 hPa | 2.29 mm | - | 0 W/m² | - |
| 1778058471 | 13.33° C | 99% | 1004.9 hPa | 1.78 mm | - | 0 W/m² | - |
| 1778057864 | 13.33° C | 99% | 1005.2 hPa | 2.29 mm | - | 0 W/m² | - |
| 1778057257 | 13.33° C | 99% | 1005.4 hPa | 3.05 mm | - | 0 W/m² | - |
| 1778055741 | 13.33° C | 99% | 1005.3 hPa | 3.05 mm | - | 0 W/m² | - |
| 1778055439 | 13.33° C | 99% | 1005.5 hPa | 3.05 mm | - | 0 W/m² | - |
| 1778055136 | 13.33° C | 99% | 1005.3 hPa | 3.56 mm | - | 0 W/m² | - |
| 1778053623 | 13.33° C | 99% | 1005.1 hPa | 0 mm | - | 0 W/m² | - |
* Rain latest hour (hover to see other rain measurements)
** Current wind speed in m/s (hover to see current wind gust speed)